Location: ShareBrained
(45.5589°N, 122.6491°W)
Time: 23:53:35
(UTC-07:00)

NOAA 19 - Pass Details

Date: 25 September 2023
Orbit: 838 x 859 km, 99.0° (Epoch: 20 September)

Event Time Altitude Azimuth Distance (km) Brightness Sun altitude
Exits shadow 21:11:48 49° 141° (SE) 1,084 5.3 -22.9°
Maximum altitude 21:13:16 73° 72° (ENE) 890 5.1 -23.1°
Drops below altitude 10° 21:18:47 10° 349° (N) 2,492 8.1 -24.0°
Sets 21:21:10 0° 348° (NNW) 3,436 8.9 -24.4°
